Orbital Elements at Epoch 2459200.5 (2020-Dec-17.0) TDB
Reference: JPL 16 (heliocentric ecliptic J2000)
Element | Value | Uncertainty (1-sigma) | Units |
e | .1645307521272364 | 4.5685e-08 | |
a | 3.120128528742374 | 3.0435e-08 | au |
q | 2.606771435174744 | 1.4444e-07 | au |
i | 6.204465318239939 | 5.2517e-06 | deg |
node | 103.6730505664244 | 5.3739e-05 | deg |
peri | 237.3923767688955 | 5.6654e-05 | deg |
M | 260.664579732325 | 1.9295e-05 | deg |
tp | 2459755.967669539581 (2022-Jun-25.46766954) | 0.00011218 | TDB |
period | 2013.062012476544 5.51 | 2.9454e-05 8.064e-08 | d yr |
n | .1788320467868322 | 2.6166e-09 | deg/d |
Q | 3.633485622310004 | 3.5443e-08 | au |
|
| | Orbit Determination Parameters
Additional Information
|